#timestamp,LO_Frequency,Hit,StdDev 
1652508015.1,286046996.3,N
1652508035.9,286046995.4,N
1652508055.7,286046993.4,N
1652508075.6,286046990.1,Y
1652508095.4,286046994.8,P
1652508115.2,286046992.4,P
1652508135.1,286046992.2,P
1652508136.0,286046992.2,Y
1652508155.8,286046998.5,P
1652508175.6,286047002.1,N
1652508195.5,286047003.6,N
1652508215.3,286047004.4,N
1652508235.1,286047002.3,N
1652508255.9,286047001.6,N
1652508275.7,286047003.8,N
1652508295.5,286047003.8,N
1652508315.4,286047003.1,N
1652508335.2,286047003.1,N
1652508355.0,286047007.4,N
1652508355.9,286047007.4,N
1652508375.8,286047006.9,N
1652508395.6,286047008.9,N
1652508415.4,286047006.1,N
1652508435.3,286047006.4,N
1652508455.1,286047007.2,N
1652508475.8,286047007.2,N
1652508495.7,286047004.7,N
1652508515.5,286047006.0,N
1652508535.3,286047003.6,N
1652508555.2,286047001.3,N
1652508575.9,286047001.7,N
1652508595.7,286047003.8,N
1652508615.6,286047005.6,N
1652508635.4,286047004.8,N
1652508655.2,286047003.3,N
1652508675.1,286047001.4,N
1652508676.0,286047001.4,N
1652508695.8,286047004.4,N
1652508715.6,286047004.3,N
1652508735.5,286047004.2,N
1652508755.3,286047003.4,N
1652508775.1,286047001.5,N
1652508795.9,286047002.5,N
1652508815.7,286046999.8,N
1652508835.5,286047001.9,N
1652508855.4,286047004.4,N
1652508875.2,286047002.0,N
1652508895.0,286047001.7,N
1652508895.9,286047001.7,N
1652508915.8,286047005.5,N
1652508935.6,286047002.1,N
1652508955.4,286046998.6,N
1652508975.3,286046999.3,N
1652508995.1,286046996.9,N
1652509015.8,286047002.2,N
1652509035.7,286047005.8,N
1652509055.5,286047004.4,N
1652509075.3,286047002.8,N
1652509095.2,286047000.4,N
1652509115.0,286047004.4,N
1652509115.9,286047004.4,N
1652509135.8,286047005.1,N
1652509155.6,286047003.9,N
1652509175.4,286047000.2,N
1652509195.3,286046998.5,N
1652509215.1,286046999.5,N
1652509216.0,286046999.5,N
1652509235.8,286046999.6,N
1652509255.7,286046999.2,N
1652509275.5,286047000.1,N
1652509295.3,286046998.7,N
1652509315.2,286047001.5,N
1652509335.9,286047003.0,N
1652509355.7,286047005.1,N
1652509375.6,286047004.6,N
1652509395.4,286047007.4,N
1652509415.2,286047003.2,N
1652509435.1,286047001.9,N
1652509436.0,286047001.9,N
1652509455.8,286047005.6,N
1652509475.6,286047003.1,N
1652509495.5,286047001.4,N
1652509515.3,286047002.7,N
1652509535.1,286047000.1,N
1652509555.9,286047001.9,N
1652509575.7,286047001.5,N
1652509595.5,286047002.3,N
1652509615.4,286046998.9,N
1652509635.2,286046998.0,N
1652509655.0,286046996.4,N
1652509655.9,286046996.4,N
1652509675.8,286046993.4,N
1652509695.6,286046997.6,N
1652509715.4,286046999.6,N
1652509735.3,286046998.6,N
1652509755.1,286047000.3,N
1652509775.8,286046997.1,N
1652509795.7,286046997.5,N
1652509815.5,286046997.9,N
1652509835.3,286046999.0,N
1652509855.2,286046999.6,N
1652509875.0,286046997.0,N
1652509875.9,286046997.0,N
1652509895.7,286047001.1,N
1652509915.6,286047002.1,N
1652509935.4,286047000.8,N
1652509955.3,286046994.9,N
1652509975.1,286046996.2,N
1652509976.0,286046996.2,N
1652509995.8,286046993.6,N
1652510015.7,286046991.8,Y
1652510035.5,286046995.2,P
1652510055.3,286046997.8,N
1652510075.2,286046996.6,N
1652510095.9,286046998.8,N
1652510115.7,286046998.1,N
1652510135.6,286047000.8,N
1652510155.4,286047000.6,N
1652510175.2,286046998.6,N
1652510195.1,286046998.6,N
1652510196.0,286046998.6,N
1652510215.8,286046998.7,N
1652510235.6,286047002.5,N
1652510255.5,286047001.8,N
1652510275.3,286047002.0,N
1652510295.1,286047001.0,N
1652510315.9,286046999.7,N
1652510335.7,286047004.1,N
1652510355.5,286047001.3,N
1652510375.4,286047000.4,N
1652510395.2,286047001.2,N
1652510415.0,286047001.2,N
1652510415.9,286047001.2,N
1652510435.8,286046998.8,N
1652510455.6,286047000.1,N
1652510475.4,286047002.4,N
1652510495.3,286046998.1,N
1652510515.1,286047000.3,N
1652510535.8,286047000.6,N
1652510555.7,286047002.8,N
1652510575.5,286047002.0,N
1652510595.3,286047001.6,N
1652510615.2,286047000.4,N
1652510635.9,286046999.1,N
1652510655.7,286046998.5,N
1652510675.6,286046999.2,N
1652510695.4,286046998.2,N
1652510715.2,286046998.1,N
1652510735.1,286046998.1,N
1652510736.0,286046998.1,N
1652510755.8,286047002.3,N
1652510775.6,286046996.7,N
1652510795.5,286046995.1,N
1652510815.3,286046995.5,N
1652510835.1,286046995.4,N
1652510855.9,286046998.5,N
1652510875.7,286047000.9,N
1652510895.5,286047001.4,N
1652510915.4,286047000.4,N
1652510935.2,286046999.5,N
1652510955.0,286046997.1,N
1652510955.9,286046997.1,N
1652510975.8,286046997.0,N
1652510995.6,286046999.3,N
1652511015.4,286047000.8,N
1652511035.3,286046999.3,N
1652511055.1,286046998.5,N
1652511075.8,286046995.4,N
1652511095.7,286046995.2,N
1652511115.5,286046999.4,N
1652511135.3,286047004.3,N
1652511155.2,286047002.2,N
1652511175.0,286046999.7,N
1652511175.9,286046999.7,N
1652511195.7,286046999.3,N
1652511215.6,286046999.4,N
1652511235.4,286046998.2,N
1652511255.2,286047002.5,N
1652511275.1,286047002.7,N
1652511276.0,286047002.7,N
1652511295.8,286047001.1,N
1652511315.7,286047001.6,N
1652511335.5,286046998.5,N
1652511355.3,286047001.1,N
1652511375.2,286046998.8,N
1652511395.9,286046999.5,N
1652511415.7,286047000.7,N
1652511435.6,286047000.0,N
1652511455.4,286047001.2,N
1652511475.2,286047001.0,N
1652511495.1,286047000.3,N
1652511496.0,286047000.3,N
1652511515.8,286046999.7,N
1652511535.6,286047003.9,N
1652511555.5,286047006.0,N
1652511575.3,286047001.9,N
1652511595.1,286046999.4,N
